Location: *
(45.9500°N, 9.0833°E)
Time: 16:01:57
(UTC+00:00)

Okean 1-7 - Pass Details

Date: 03 March 2021
Orbit: 589 x 619 km, 82.5° (Epoch: 18 April)

Event Time Altitude Azimuth Distance (km) Brightness Sun altitude
Rises 17:57:40 0° 1° (N) 2,898 6.5 -8.5°
Reaches altitude 10° 18:00:14 10° 15° (NNE) 1,983 5.5 -9.0°
Maximum altitude 18:03:55 26° 72° (ENE) 1,223 4.0 -9.6°
Drops below altitude 10° 18:07:33 10° 129° (SE) 1,955 5.2 -10.3°
Enters shadow 18:08:48 - 137° (SE) 2,388 5.7 -10.5°
